| time (UTC) | temp C | wind direction | speed KPH | gust KPH | rain 1hr cm | rain 24hr cm | rain mn cm | humidity % | barometer mb |
| 20260508073552 | 11 | 129 | 0.0 | 8.0 | 0.00 | 0.00 | 0.00 | 80 | 1019.3 |
| 20260508073053 | 11 | 107 | 0.0 | 8.0 | 0.00 | 0.00 | 0.00 | 80 | 1019.4 |
| 20260508072550 | 11 | 67 | 0.0 | 4.8 | 0.00 | 0.00 | 0.00 | 80 | 1019.3 |
| 20260508072048 | 11 | 85 | 0.0 | 4.8 | 0.00 | 0.00 | 0.00 | 80 | 1019.3 |
| 20260508071552 | 11 | 49 | 0.0 | 4.8 | 0.00 | 0.00 | 0.00 | 81 | 1019.3 |
| 20260508071046 | 11 | 202 | 0.0 | 4.8 | 0.00 | 0.00 | 0.00 | 82 | 1019.3 |
| 20260508070546 | 10 | 355 | 0.0 | 9.7 | 0.00 | 0.00 | 0.00 | 82 | 1019.3 |
| 20260508070046 | 10 | 55 | 1.6 | 8.0 | 0.00 | 0.00 | 0.00 | 82 | 1019.3 |
| 20260508065543 | 10 | 138 | 1.6 | 4.8 | 0.00 | 0.00 | 0.00 | 82 | 1019.2 |
| 20260508065042 | 10 | 286 | 0.0 | 3.2 | 0.00 | 0.00 | 0.00 | 83 | 1019.1 |
| 20260508064543 | 10 | 70 | 0.0 | 6.4 | 0.00 | 0.00 | 0.00 | 84 | 1019.1 |
| 20260508064041 | 10 | 76 | 0.0 | 6.4 | 0.00 | 0.00 | 0.00 | 84 | 1019.1 |
| 20260508063539 | 10 | 112 | 0.0 | 4.8 | 0.00 | 0.00 | 0.00 | 84 | 1019.1 |
| 20260508063112 | 10 | 46 | 0.0 | 4.8 | 0.00 | 0.00 | 0.00 | 84 | 1019.0 |
| 20260508062537 | 10 | 26 | 0.0 | 4.8 | 0.00 | 0.00 | 0.00 | 84 | 1019.1 |
| 20260508062039 | 10 | 48 | 0.0 | 3.2 | 0.00 | 0.00 | 0.00 | 85 | 1019.0 |
| 20260508061534 | 10 | 112 | 0.0 | 3.2 | 0.00 | 0.00 | 0.00 | 85 | 1019.0 |
| 20260508061034 | 10 | 108 | 0.0 | 8.0 | 0.00 | 0.00 | 0.00 | 85 | 1019.0 |
| 20260508060537 | 10 | 66 | 0.0 | 8.0 | 0.00 | 0.00 | 0.00 | 85 | 1019.0 |
| 20260508060034 | 10 | 107 | 0.0 | 4.8 | 0.00 | 0.00 | 0.00 | 85 | 1018.9 |
| 20260508055531 | 10 | 60 | 0.0 | 6.4 | 0.00 | 0.00 | 0.00 | 85 | 1018.9 |
| 20260508055033 | 10 | 331 | 0.0 | 4.8 | 0.00 | 0.00 | 0.00 | 85 | 1018.9 |
| 20260508054529 | 10 | 79 | 0.0 | 6.4 | 0.00 | 0.00 | 0.00 | 85 | 1018.9 |
| 20260508054028 | 10 | 31 | 0.0 | 6.4 | 0.00 | 0.00 | 0.00 | 85 | 1018.8 |
| 20260508053527 | 10 | 84 | 0.0 | 4.8 | 0.00 | 0.00 | 0.00 | 85 | 1018.8 |
| 20260508053041 | 10 | 103 | 0.0 | 6.4 | 0.00 | 0.00 | 0.00 | 85 | 1018.8 |
| 20260508052524 | 10 | 28 | 0.0 | 6.4 | 0.00 | 0.00 | 0.00 | 85 | 1018.7 |
| 20260508052026 | 10 | 263 | 0.0 | 4.8 | 0.00 | 0.00 | 0.00 | 84 | 1018.6 |
| 20260508051522 | 10 | 13 | 0.0 | 4.8 | 0.00 | 0.00 | 0.00 | 84 | 1018.6 |
| 20260508051022 | 10 | 70 | 0.0 | 4.8 | 0.00 | 0.00 | 0.00 | 84 | 1018.6 |
| 20260508050521 | 10 | 80 | 0.0 | 4.8 | 0.00 | 0.00 | 0.00 | 84 | 1018.5 |
| 20260508050023 | 10 | 80 | 0.0 | 4.8 | 0.00 | 0.00 | 0.00 | 83 | 1018.5 |
| 20260508045519 | 10 | 55 | 1.6 | 4.8 | 0.00 | 0.00 | 0.00 | 83 | 1018.4 |
| 20260508045020 | 10 | 22 | 0.0 | 4.8 | 0.00 | 0.00 | 0.00 | 83 | 1018.4 |
| 20260508044517 | 10 | 85 | 0.0 | 3.2 | 0.00 | 0.00 | 0.00 | 83 | 1018.4 |
| 20260508044016 | 10 | 68 | 0.0 | 4.8 | 0.00 | 0.00 | 0.00 | 83 | 1018.4 |
| 20260508043518 | 10 | 82 | 1.6 | 4.8 | 0.00 | 0.00 | 0.00 | 83 | 1018.4 |
| 20260508043014 | 10 | 34 | 0.0 | 4.8 | 0.00 | 0.00 | 0.00 | 83 | 1018.4 |
| 20260508042514 | 10 | 38 | 0.0 | 4.8 | 0.00 | 0.00 | 0.00 | 83 | 1018.3 |
| 20260508042019 | 10 | 82 | 0.0 | 3.2 | 0.00 | 0.00 | 0.00 | 83 | 1018.3 |
| 20260508041518 | 10 | 67 | 0.0 | 3.2 | 0.00 | 0.00 | 0.00 | 83 | 1018.3 |
| 20260508041012 | 10 | 65 | 0.0 | 4.8 | 0.00 | 0.00 | 0.00 | 83 | 1018.3 |
| 20260508040512 | 10 | 288 | 0.0 | 4.8 | 0.00 | 0.00 | 0.00 | 83 | 1018.3 |
| 20260508040011 | 10 | 114 | 0.0 | 3.2 | 0.00 | 0.00 | 0.00 | 83 | 1018.3 |
| 20260508035511 | 10 | 355 | 0.0 | 3.2 | 0.00 | 0.00 | 0.00 | 83 | 1018.3 |
| 20260508035013 | 10 | 307 | 0.0 | 3.2 | 0.00 | 0.00 | 0.00 | 83 | 1018.2 |
| 20260508034516 | 10 | 80 | 0.0 | 3.2 | 0.00 | 0.00 | 0.00 | 83 | 1018.2 |
| 20260508034011 | 10 | 355 | 0.0 | 4.8 | 0.00 | 0.00 | 0.00 | 83 | 1018.2 |
| 20260508033509 | 10 | 327 | 0.0 | 4.8 | 0.00 | 0.00 | 0.00 | 83 | 1018.3 |
| 20260508033020 | 10 | 81 | 0.0 | 6.4 | 0.00 | 0.00 | 0.00 | 83 | 1018.2 |
| 20260508032508 | 10 | 62 | 0.0 | 6.4 | 0.00 | 0.00 | 0.00 | 82 | 1018.2 |
| 20260508032008 | 10 | 48 | 0.0 | 1.6 | 0.00 | 0.00 | 0.00 | 82 | 1018.1 |
| 20260508031508 | 10 | 5 | 0.0 | 4.8 | 0.00 | 0.00 | 0.00 | 82 | 1018.2 |
| 20260508031008 | 10 | 60 | 0.0 | 4.8 | 0.00 | 0.00 | 0.00 | 82 | 1018.1 |
| 20260508030508 | 10 | 80 | 0.0 | 4.8 | 0.00 | 0.00 | 0.00 | 82 | 1018.1 |
| 20260508030121 | 10 | 40 | 0.0 | 8.0 | 0.00 | 0.00 | 0.00 | 82 | 1018.1 |
| 20260508025507 | 10 | 70 | 1.6 | 8.0 | 0.00 | 0.00 | 0.00 | 82 | 1018.1 |
| 20260508025006 | 10 | 53 | 1.6 | 6.4 | 0.00 | 0.00 | 0.00 | 82 | 1018.0 |
| 20260508024509 | 10 | 70 | 0.0 | 3.2 | 0.00 | 0.00 | 0.00 | 82 | 1018.0 |
| 20260508024005 | 10 | 91 | 0.0 | 4.8 | 0.00 | 0.00 | 0.00 | 82 | 1018.0 |
| 20260508023506 | 10 | 53 | 0.0 | 9.7 | 0.00 | 0.00 | 0.00 | 82 | 1018.0 |
| 20260508023006 | 10 | 22 | 0.0 | 9.7 | 0.00 | 0.00 | 0.00 | 81 | 1018.1 |
| 20260508022510 | 10 | 40 | 0.0 | 3.2 | 0.00 | 0.00 | 0.00 | 81 | 1018.1 |
| 20260508022004 | 10 | 59 | 0.0 | 4.8 | 0.00 | 0.00 | 0.00 | 81 | 1018.1 |
| 20260508021504 | 10 | 70 | 0.0 | 4.8 | 0.00 | 0.00 | 0.00 | 81 | 1018.0 |
| 20260508021006 | 10 | 24 | 0.0 | 3.2 | 0.00 | 0.00 | 0.00 | 81 | 1018.1 |
| 20260508020506 | 11 | 43 | 0.0 | 3.2 | 0.00 | 0.00 | 0.00 | 81 | 1018.0 |
| 20260508020002 | 11 | 38 | 0.0 | 4.8 | 0.00 | 0.00 | 0.00 | 81 | 1018.0 |
| 20260508015501 | 11 | 306 | 0.0 | 4.8 | 0.00 | 0.00 | 0.00 | 80 | 1018.1 |
| 20260508015002 | 11 | 37 | 0.0 | 4.8 | 0.00 | 0.00 | 0.00 | 80 | 1018.0 |
| 20260508014505 | 11 | 76 | 0.0 | 8.0 | 0.00 | 0.00 | 0.00 | 80 | 1018.1 |
| 20260508014002 | 11 | 69 | 1.6 | 8.0 | 0.00 | 0.00 | 0.00 | 80 | 1018.1 |
| 20260508013600 | 11 | 81 | 0.0 | 4.8 | 0.00 | 0.00 | 0.00 | 80 | 1018.1 |
| 20260508013100 | 11 | 312 | 0.0 | 1.6 | 0.00 | 0.00 | 0.00 | 80 | 1018.1 |
| 20260508012604 | 11 | 39 | 0.0 | 6.4 | 0.00 | 0.00 | 0.00 | 80 | 1018.1 |
| 20260508012104 | 11 | 31 | 0.0 | 6.4 | 0.00 | 0.00 | 0.00 | 80 | 1018.1 |
| 20260508011559 | 11 | 82 | 0.0 | 3.2 | 0.00 | 0.00 | 0.00 | 79 | 1018.1 |
| 20260508011059 | 11 | 96 | 0.0 | 3.2 | 0.00 | 0.00 | 0.00 | 79 | 1018.1 |
| 20260508010558 | 11 | 341 | 0.0 | 3.2 | 0.00 | 0.00 | 0.00 | 79 | 1018.1 |
| 20260508010109 | 11 | 55 | 0.0 | 0.0 | 0.00 | 0.00 | 0.00 | 79 | 1018.1 |
| 20260508005600 | 11 | 55 | 0.0 | 4.8 | 0.00 | 0.00 | 0.00 | 79 | 1018.1 |
| 20260508005056 | 11 | 55 | 0.0 | 4.8 | 0.00 | 0.00 | 0.00 | 79 | 1018.1 |
| 20260508004556 | 11 | 313 | 0.0 | 3.2 | 0.00 | 0.00 | 0.00 | 79 | 1018.2 |
| 20260508004056 | 11 | 47 | 0.0 | 1.6 | 0.00 | 0.00 | 0.00 | 78 | 1018.1 |
| 20260508003555 | 11 | 76 | 0.0 | 3.2 | 0.00 | 0.00 | 0.00 | 78 | 1018.2 |
| 20260508003103 | 11 | 88 | 0.0 | 3.2 | 0.00 | 0.00 | 0.00 | 78 | 1018.2 |
| 20260508002555 | 11 | 29 | 0.0 | 4.8 | 0.00 | 0.00 | 0.00 | 78 | 1018.1 |
| 20260508002054 | 11 | 79 | 0.0 | 6.4 | 0.00 | 0.00 | 0.00 | 78 | 1018.2 |
| 20260508001557 | 11 | 337 | 1.6 | 6.4 | 0.00 | 0.00 | 0.00 | 78 | 1018.2 |
| 20260508001054 | 11 | 46 | 0.0 | 4.8 | 0.00 | 0.00 | 0.00 | 78 | 1018.2 |
| 20260508000554 | 11 | 335 | 0.0 | 4.8 | 0.00 | 0.00 | 0.00 | 78 | 1018.1 |
| 20260508000053 | 11 | 16 | 0.0 | 4.8 | 0.00 | 0.00 | 0.00 | 78 | 1018.1 |
| 20260507235553 | 11 | 355 | 0.0 | 4.8 | 0.00 | 0.00 | 0.00 | 78 | 1018.1 |
| 20260507235052 | 11 | 34 | 0.0 | 6.4 | 0.00 | 0.00 | 0.00 | 77 | 1018.2 |
| 20260507234552 | 11 | 31 | 0.0 | 6.4 | 0.00 | 0.00 | 0.00 | 77 | 1018.2 |
| 20260507234054 | 12 | 61 | 0.0 | 3.2 | 0.00 | 0.00 | 0.00 | 77 | 1018.2 |
| 20260507233551 | 12 | 41 | 0.0 | 6.4 | 0.00 | 0.00 | 0.00 | 77 | 1018.2 |
| 20260507233051 | 12 | 21 | 0.0 | 6.4 | 0.00 | 0.00 | 0.00 | 77 | 1018.2 |
| 20260507232550 | 12 | 51 | 1.6 | 6.4 | 0.00 | 0.00 | 0.00 | 77 | 1018.2 |
| 20260507232050 | 12 | 61 | 0.0 | 4.8 | 0.00 | 0.00 | 0.00 | 77 | 1018.2 |
| 20260507231551 | 12 | 11 | 0.0 | 3.2 | 0.00 | 0.00 | 0.00 | 77 | 1018.3 |
| 20260507231050 | 12 | 339 | 0.0 | 4.8 | 0.00 | 0.00 | 0.00 | 77 | 1018.3 |
| 20260507230550 | 12 | 32 | 0.0 | 4.8 | 0.00 | 0.00 | 0.00 | 77 | 1018.3 |
| 20260507230106 | 12 | 20 | 0.0 | 4.8 | 0.00 | 0.00 | 0.00 | 77 | 1018.2 |
| 20260507225548 | 12 | 43 | 0.0 | 8.0 | 0.00 | 0.00 | 0.00 | 77 | 1018.2 |
| 20260507225049 | 12 | 85 | 0.0 | 8.0 | 0.00 | 0.00 | 0.00 | 77 | 1018.2 |
| 20260507224549 | 12 | 23 | 0.0 | 6.4 | 0.00 | 0.00 | 0.00 | 77 | 1018.2 |
| 20260507224048 | 12 | 73 | 1.6 | 6.4 | 0.00 | 0.00 | 0.00 | 77 | 1018.2 |
| 20260507223548 | 12 | 344 | 0.0 | 6.4 | 0.00 | 0.00 | 0.00 | 77 | 1018.2 |
| 20260507223133 | 12 | 332 | 0.0 | 4.8 | 0.00 | 0.00 | 0.00 | 77 | 1018.2 |
| 20260507222547 | 12 | 342 | 0.0 | 8.0 | 0.00 | 0.00 | 0.00 | 77 | 1018.2 |
| 20260507222046 | 12 | 60 | 0.0 | 8.0 | 0.00 | 0.00 | 0.00 | 78 | 1018.2 |
| 20260507221547 | 12 | 58 | 1.6 | 8.0 | 0.00 | 0.00 | 0.00 | 78 | 1018.2 |
| 20260507221046 | 12 | 42 | 0.0 | 3.2 | 0.00 | 0.00 | 0.00 | 78 | 1018.2 |
| 20260507220545 | 12 | 47 | 0.0 | 3.2 | 0.00 | 0.00 | 0.00 | 77 | 1018.2 |
| 20260507220045 | 12 | 44 | 0.0 | 4.8 | 0.00 | 0.00 | 0.00 | 77 | 1018.2 |
| 20260507215544 | 12 | 71 | 0.0 | 4.8 | 0.00 | 0.00 | 0.00 | 77 | 1018.1 |
| 20260507215045 | 12 | 59 | 0.0 | 4.8 | 0.00 | 0.00 | 0.00 | 77 | 1018.1 |
| 20260507214552 | 12 | 46 | 0.0 | 4.8 | 0.00 | 0.00 | 0.00 | 77 | 1018.1 |
| 20260507214043 | 12 | 40 | 0.0 | 4.8 | 0.00 | 0.00 | 0.00 | 76 | 1018.1 |
| 20260507213543 | 12 | 355 | 0.0 | 8.0 | 0.00 | 0.00 | 0.00 | 76 | 1018.1 |
| 20260507213042 | 12 | 53 | 1.6 | 8.0 | 0.00 | 0.00 | 0.00 | 76 | 1018.1 |
| 20260507212542 | 12 | 40 | 1.6 | 4.8 | 0.00 | 0.00 | 0.00 | 75 | 1018.1 |
| 20260507212043 | 12 | 34 | 0.0 | 4.8 | 0.00 | 0.00 | 0.00 | 75 | 1018.1 |
| 20260507211547 | 12 | 26 | 0.0 | 6.4 | 0.00 | 0.00 | 0.00 | 75 | 1018.1 |
| 20260507211042 | 12 | 28 | 0.0 | 6.4 | 0.00 | 0.00 | 0.00 | 74 | 1018.1 |
| 20260507210545 | 12 | 65 | 0.0 | 8.0 | 0.00 | 0.00 | 0.00 | 74 | 1018.1 |
| 20260507210046 | 12 | 60 | 1.6 | 8.0 | 0.00 | 0.00 | 0.00 | 74 | 1018.1 |
| 20260507205542 | 12 | 43 | 0.0 | 6.4 | 0.00 | 0.00 | 0.00 | 73 | 1018.1 |
| 20260507205042 | 12 | 63 | 1.6 | 4.8 | 0.00 | 0.00 | 0.00 | 73 | 1018.1 |
| 20260507204544 | 12 | 321 | 0.0 | 6.4 | 0.00 | 0.00 | 0.00 | 73 | 1018.0 |
| 20260507204040 | 12 | 71 | 1.6 | 6.4 | 0.00 | 0.00 | 0.00 | 72 | 1018.0 |
| 20260507203541 | 12 | 336 | 0.0 | 4.8 | 0.00 | 0.00 | 0.00 | 72 | 1017.9 |
| 20260507203043 | 12 | 46 | 1.6 | 6.4 | 0.00 | 0.00 | 0.00 | 72 | 1018.0 |
| 20260507202539 | 12 | 51 | 1.6 | 6.4 | 0.00 | 0.00 | 0.00 | 71 | 1018.0 |
| 20260507202043 | 12 | 24 | 1.6 | 8.0 | 0.00 | 0.00 | 0.00 | 71 | 1017.9 |
| 20260507201542 | 12 | 67 | 1.6 | 11.3 | 0.00 | 0.00 | 0.00 | 70 | 1017.8 |
| 20260507201038 | 12 | 58 | 1.6 | 11.3 | 0.00 | 0.00 | 0.00 | 70 | 1017.7 |
| 20260507200537 | 12 | 64 | 1.6 | 9.7 | 0.00 | 0.00 | 0.00 | 69 | 1017.7 |
| 20260507200051 | 12 | 38 | 3.2 | 9.7 | 0.00 | 0.00 | 0.00 | 69 | 1017.6 |
| 20260507195536 | 12 | 65 | 3.2 | 12.9 | 0.00 | 0.00 | 0.00 | 68 | 1017.6 |
| 20260507195036 | 13 | 19 | 1.6 | 12.9 | 0.00 | 0.00 | 0.00 | 67 | 1017.6 |
| 20260507194535 | 13 | 53 | 1.6 | 12.9 | 0.00 | 0.00 | 0.00 | 67 | 1017.6 |
| 20260507194034 | 13 | 33 | 3.2 | 12.9 | 0.00 | 0.00 | 0.00 | 67 | 1017.5 |
| 20260507193534 | 13 | 59 | 3.2 | 14.5 | 0.00 | 0.00 | 0.00 | 66 | 1017.5 |
| 20260507193043 | 13 | 54 | 3.2 | 14.5 | 0.00 | 0.00 | 0.00 | 66 | 1017.5 |
| 20260507192533 | 13 | 110 | 1.6 | 9.7 | 0.00 | 0.00 | 0.00 | 65 | 1017.4 |
| 20260507192032 | 13 | 347 | 1.6 | 9.7 | 0.00 | 0.00 | 0.00 | 65 | 1017.4 |
| 20260507191533 | 13 | 333 | 0.0 | 9.7 | 0.00 | 0.00 | 0.00 | 64 | 1017.3 |
| 20260507191035 | 13 | 24 | 3.2 | 8.0 | 0.00 | 0.00 | 0.00 | 63 | 1017.3 |
| 20260507190532 | 13 | 49 | 1.6 | 6.4 | 0.00 | 0.00 | 0.00 | 63 | 1017.3 |
| 20260507190036 | 13 | 51 | 1.6 | 8.0 | 0.00 | 0.00 | 0.00 | 62 | 1017.3 |
| 20260507185530 | 14 | 46 | 1.6 | 6.4 | 0.00 | 0.00 | 0.00 | 62 | 1017.3 |
| 20260507185033 | 14 | 22 | 1.6 | 4.8 | 0.00 | 0.00 | 0.00 | 62 | 1017.3 |
| 20260507184531 | 14 | 324 | 0.0 | 4.8 | 0.00 | 0.00 | 0.00 | 61 | 1017.3 |
| 20260507184029 | 14 | 303 | 0.0 | 4.8 | 0.00 | 0.00 | 0.00 | 61 | 1017.3 |
| 20260507183530 | 14 | 31 | 0.0 | 4.8 | 0.00 | 0.00 | 0.00 | 61 | 1017.3 |
| 20260507183037 | 14 | 307 | 0.0 | 4.8 | 0.00 | 0.00 | 0.00 | 61 | 1017.2 |
| 20260507182530 | 14 | 360 | 0.0 | 8.0 | 0.00 | 0.00 | 0.00 | 61 | 1017.3 |
| 20260507182030 | 14 | 26 | 0.0 | 8.0 | 0.00 | 0.00 | 0.00 | 60 | 1017.2 |
| 20260507181533 | 14 | 344 | 0.0 | 6.4 | 0.00 | 0.00 | 0.00 | 60 | 1017.2 |
| 20260507181029 | 14 | 28 | 1.6 | 6.4 | 0.00 | 0.00 | 0.00 | 59 | 1017.2 |
| 20260507180530 | 14 | 14 | 1.6 | 6.4 | 0.00 | 0.00 | 0.00 | 58 | 1017.2 |
| 20260507180029 | 14 | 39 | 1.6 | 4.8 | 0.00 | 0.00 | 0.00 | 58 | 1017.2 |
| 20260507175531 | 14 | 56 | 0.0 | 4.8 | 0.00 | 0.00 | 0.00 | 58 | 1017.2 |
| 20260507175027 | 14 | 59 | 1.6 | 4.8 | 0.00 | 0.00 | 0.00 | 57 | 1017.2 |
| 20260507174528 | 14 | 300 | 1.6 | 4.8 | 0.00 | 0.00 | 0.00 | 56 | 1017.2 |
| 20260507174027 | 14 | 292 | 1.6 | 4.8 | 0.00 | 0.00 | 0.00 | 56 | 1017.2 |
| 20260507173526 | 14 | 26 | 0.0 | 8.0 | 0.00 | 0.00 | 0.00 | 57 | 1017.2 |
| 20260507173027 | 14 | 35 | 0.0 | 8.0 | 0.00 | 0.00 | 0.00 | 56 | 1017.1 |
| 20260507172527 | 14 | 318 | 1.6 | 8.0 | 0.00 | 0.00 | 0.00 | 56 | 1017.2 |
| 20260507172026 | 15 | 74 | 1.6 | 8.0 | 0.00 | 0.00 | 0.00 | 56 | 1017.1 |
| 20260507171526 | 15 | 64 | 4.8 | 8.0 | 0.00 | 0.00 | 0.00 | 56 | 1017.1 |
| 20260507171026 | 15 | 29 | 1.6 | 9.7 | 0.00 | 0.00 | 0.00 | 57 | 1017.1 |
| 20260507170526 | 15 | 51 | 3.2 | 6.4 | 0.00 | 0.00 | 0.00 | 57 | 1017.1 |
| 20260507170027 | 15 | 298 | 1.6 | 8.0 | 0.00 | 0.00 | 0.00 | 57 | 1017.1 |
| 20260507165525 | 15 | 290 | 1.6 | 8.0 | 0.00 | 0.00 | 0.00 | 57 | 1017.1 |
| 20260507165025 | 15 | 57 | 1.6 | 6.4 | 0.00 | 0.00 | 0.00 | 57 | 1017.0 |
| 20260507164525 | 15 | 323 | 1.6 | 6.4 | 0.00 | 0.00 | 0.00 | 56 | 1017.0 |
| 20260507164024 | 15 | 68 | 1.6 | 11.3 | 0.00 | 0.00 | 0.00 | 55 | 1017.0 |
| 20260507163527 | 15 | 31 | 3.2 | 11.3 | 0.00 | 0.00 | 0.00 | 54 | 1017.0 |
| 20260507163027 | 15 | 339 | 3.2 | 9.7 | 0.00 | 0.00 | 0.00 | 54 | 1017.1 |
| 20260507162525 | 15 | 30 | 1.6 | 8.0 | 0.00 | 0.00 | 0.00 | 54 | 1017.0 |
| 20260507162028 | 15 | 23 | 1.6 | 8.0 | 0.00 | 0.00 | 0.00 | 54 | 1017.0 |
| 20260507161529 | 15 | 61 | 0.0 | 8.0 | 0.00 | 0.00 | 0.00 | 54 | 1017.1 |
| 20260507161023 | 15 | 59 | 3.2 | 8.0 | 0.00 | 0.00 | 0.00 | 53 | 1017.0 |
| 20260507160524 | 15 | 5 | 1.6 | 4.8 | 0.00 | 0.00 | 0.00 | 54 | 1017.0 |
| 20260507160026 | 15 | 341 | 0.0 | 9.7 | 0.00 | 0.00 | 0.00 | 53 | 1016.9 |
| 20260507155523 | 15 | 65 | 1.6 | 9.7 | 0.00 | 0.00 | 0.00 | 53 | 1016.9 |
| 20260507155024 | 15 | 293 | 1.6 | 6.4 | 0.00 | 0.00 | 0.00 | 53 | 1016.9 |
| 20260507154527 | 15 | 67 | 1.6 | 6.4 | 0.00 | 0.00 | 0.00 | 52 | 1016.9 |
| 20260507154024 | 15 | 293 | 3.2 | 6.4 | 0.00 | 0.00 | 0.00 | 50 | 1016.9 |
| 20260507153522 | 15 | 304 | 0.0 | 8.0 | 0.00 | 0.00 | 0.00 | 50 | 1016.9 |
| 20260507153024 | 15 | 80 | 1.6 | 8.0 | 0.00 | 0.00 | 0.00 | 50 | 1016.8 |
| 20260507152521 | 15 | 65 | 1.6 | 6.4 | 0.00 | 0.00 | 0.00 | 51 | 1016.8 |
| 20260507152021 | 15 | 360 | 0.0 | 8.0 | 0.00 | 0.00 | 0.00 | 50 | 1016.8 |
| 20260507151525 | 15 | 12 | 3.2 | 9.7 | 0.00 | 0.00 | 0.00 | 50 | 1016.8 |
| 20260507151021 | 15 | 309 | 3.2 | 9.7 | 0.00 | 0.00 | 0.00 | 50 | 1016.8 |
| 20260507150521 | 15 | 58 | 1.6 | 9.7 | 0.00 | 0.00 | 0.00 | 51 | 1016.8 |
| 20260507150023 | 16 | 46 | 1.6 | 6.4 | 0.00 | 0.00 | 0.00 | 51 | 1016.7 |
| 20260507145520 | 16 | 53 | 1.6 | 6.4 | 0.00 | 0.00 | 0.00 | 49 | 1016.7 |
| 20260507145020 | 16 | 312 | 0.0 | 11.3 | 0.00 | 0.00 | 0.00 | 48 | 1016.7 |
| 20260507144527 | 16 | 53 | 1.6 | 11.3 | 0.00 | 0.00 | 0.00 | 47 | 1016.7 |
| 20260507144020 | 16 | 292 | 1.6 | 6.4 | 0.00 | 0.00 | 0.00 | 46 | 1016.6 |
| 20260507143520 | 16 | 39 | 1.6 | 4.8 | 0.00 | 0.00 | 0.00 | 45 | 1016.6 |
| 20260507143019 | 16 | 322 | 0.0 | 3.2 | 0.00 | 0.00 | 0.00 | 44 | 1016.7 |
| 20260507142520 | 16 | 71 | 1.6 | 8.0 | 0.00 | 0.00 | 0.00 | 45 | 1016.7 |
| 20260507142021 | 17 | 70 | 3.2 | 9.7 | 0.00 | 0.00 | 0.00 | 43 | 1016.7 |
| 20260507141518 | 17 | 63 | 1.6 | 12.9 | 0.00 | 0.00 | 0.00 | 44 | 1016.7 |
| 20260507141017 | 16 | 63 | 1.6 | 12.9 | 0.00 | 0.00 | 0.00 | 46 | 1016.8 |
| 20260507140518 | 16 | 72 | 3.2 | 8.0 | 0.00 | 0.00 | 0.00 | 47 | 1016.9 |
| 20260507140015 | 16 | 9 | 3.2 | 12.9 | 0.00 | 0.00 | 0.00 | 46 | 1017.0 |
| 20260507135519 | 16 | 288 | 3.2 | 12.9 | 0.00 | 0.00 | 0.00 | 48 | 1017.0 |
| 20260507135014 | 16 | 286 | 0.0 | 6.4 | 0.00 | 0.00 | 0.00 | 49 | 1017.0 |
| 20260507134514 | 16 | 81 | 3.2 | 6.4 | 0.00 | 0.00 | 0.00 | 49 | 1017.0 |
| 20260507134014 | 15 | 44 | 0.0 | 12.9 | 0.00 | 0.00 | 0.00 | 50 | 1017.0 |
| 20260507133516 | 15 | 297 | 1.6 | 12.9 | 0.00 | 0.00 | 0.00 | 52 | 1017.0 |
| 20260507133014 | 15 | 70 | 3.2 | 9.7 | 0.00 | 0.00 | 0.00 | 52 | 1017.1 |
| 20260507132515 | 15 | 33 | 1.6 | 9.7 | 0.00 | 0.00 | 0.00 | 53 | 1017.1 |
| 20260507132014 | 15 | 69 | 3.2 | 8.0 | 0.00 | 0.00 | 0.00 | 53 | 1017.0 |
| 20260507131523 | 15 | 63 | 1.6 | 8.0 | 0.00 | 0.00 | 0.00 | 51 | 1017.0 |
| 20260507131014 | 15 | 285 | 1.6 | 8.0 | 0.00 | 0.00 | 0.00 | 49 | 1017.0 |
| 20260507130512 | 15 | 274 | 3.2 | 8.0 | 0.00 | 0.00 | 0.00 | 49 | 1017.0 |
| 20260507130012 | 15 | 74 | 1.6 | 11.3 | 0.00 | 0.00 | 0.00 | 52 | 1017.0 |
| 20260507125514 | 15 | 80 | 1.6 | 11.3 | 0.00 | 0.00 | 0.00 | 51 | 1016.9 |
| 20260507125012 | 15 | 62 | 1.6 | 6.4 | 0.00 | 0.00 | 0.00 | 51 | 1017.0 |
| 20260507124512 | 15 | 333 | 1.6 | 11.3 | 0.00 | 0.00 | 0.00 | 51 | 1017.0 |
| 20260507124011 | 15 | 33 | 3.2 | 11.3 | 0.00 | 0.00 | 0.00 | 50 | 1017.0 |
| 20260507123512 | 15 | 64 | 3.2 | 12.9 | 0.00 | 0.00 | 0.00 | 51 | 1016.9 |
| 20260507123012 | 15 | 67 | 4.8 | 12.9 | 0.00 | 0.00 | 0.00 | 49 | 1016.9 |
| 20260507122511 | 15 | 5 | 1.6 | 9.7 | 0.00 | 0.00 | 0.00 | 49 | 1016.9 |
| 20260507122011 | 16 | 283 | 1.6 | 4.8 | 0.00 | 0.00 | 0.00 | 49 | 1016.9 |
| 20260507121511 | 16 | 332 | 0.0 | 3.2 | 0.00 | 0.00 | 0.00 | 51 | 1016.9 |
| 20260507121011 | 16 | 360 | 0.0 | 6.4 | 0.00 | 0.00 | 0.00 | 49 | 1016.9 |
| 20260507120509 | 15 | 134 | 1.6 | 6.4 | 0.00 | 0.00 | 0.00 | 51 | 1017.0 |
| 20260507120010 | 15 | 36 | 0.0 | 4.8 | 0.00 | 0.00 | 0.00 | 50 | 1017.0 |
| 20260507115510 | 15 | 15 | 0.0 | 4.8 | 0.00 | 0.00 | 0.00 | 48 | 1016.9 |
| 20260507115010 | 15 | 297 | 1.6 | 6.4 | 0.00 | 0.00 | 0.00 | 48 | 1017.0 |
| 20260507114510 | 15 | 305 | 1.6 | 6.4 | 0.00 | 0.00 | 0.00 | 48 | 1017.0 |
| 20260507114009 | 15 | 286 | 1.6 | 8.0 | 0.00 | 0.00 | 0.00 | 48 | 1017.0 |
| 20260507113509 | 15 | 62 | 1.6 | 8.0 | 0.00 | 0.00 | 0.00 | 49 | 1017.0 |
| 20260507113009 | 16 | 62 | 1.6 | 12.9 | 0.00 | 0.00 | 0.00 | 49 | 1017.0 |
| 20260507112508 | 16 | 288 | 1.6 | 12.9 | 0.00 | 0.00 | 0.00 | 47 | 1017.0 |
| 20260507112008 | 16 | 46 | 3.2 | 12.9 | 0.00 | 0.00 | 0.00 | 48 | 1017.0 |
| 20260507111509 | 16 | 286 | 3.2 | 9.7 | 0.00 | 0.00 | 0.00 | 46 | 1017.0 |
| 20260507111008 | 16 | 298 | 1.6 | 8.0 | 0.00 | 0.00 | 0.00 | 47 | 1017.0 |
| 20260507110506 | 16 | 5 | 3.2 | 11.3 | 0.00 | 0.00 | 0.00 | 48 | 1017.0 |
| 20260507110005 | 16 | 242 | 3.2 | 8.0 | 0.00 | 0.00 | 0.00 | 48 | 1017.0 |
| 20260507105504 | 15 | 267 | 1.6 | 8.0 | 0.00 | 0.00 | 0.00 | 49 | 1017.1 |
| 20260507105004 | 15 | 344 | 1.6 | 8.0 | 0.00 | 0.00 | 0.00 | 49 | 1017.1 |
| 20260507104503 | 15 | 20 | 1.6 | 9.7 | 0.00 | 0.00 | 0.00 | 51 | 1017.2 |
| 20260507104003 | 15 | 284 | 1.6 | 9.7 | 0.00 | 0.00 | 0.00 | 49 | 1017.2 |
| 20260507103503 | 15 | 317 | 3.2 | 9.7 | 0.00 | 0.00 | 0.00 | 49 | 1017.1 |
| 20260507103001 | 15 | 112 | 1.6 | 9.7 | 0.00 | 0.00 | 0.00 | 52 | 1017.1 |
| 20260507102600 | 16 | 68 | 3.2 | 9.7 | 0.00 | 0.00 | 0.00 | 51 | 1017.2 |
| 20260507102059 | 15 | 27 | 0.0 | 9.7 | 0.00 | 0.00 | 0.00 | 54 | 1017.1 |
| 20260507101601 | 15 | 252 | 1.6 | 9.7 | 0.00 | 0.00 | 0.00 | 53 | 1017.2 |
| 20260507101056 | 15 | 42 | 1.6 | 12.9 | 0.00 | 0.00 | 0.00 | 53 | 1017.1 |
| 20260507100554 | 15 | 275 | 3.2 | 11.3 | 0.00 | 0.00 | 0.00 | 54 | 1017.1 |
| 20260507100106 | 15 | 44 | 0.0 | 11.3 | 0.00 | 0.00 | 0.00 | 56 | 1017.1 |
| 20260507095554 | 14 | 276 | 3.2 | 11.3 | 0.00 | 0.00 | 0.00 | 56 | 1017.1 |
| 20260507095051 | 14 | 281 | 3.2 | 8.0 | 0.00 | 0.00 | 0.00 | 57 | 1017.1 |
| 20260507094551 | 14 | 306 | 1.6 | 6.4 | 0.00 | 0.00 | 0.00 | 58 | 1017.0 |
| 20260507094049 | 14 | 55 | 1.6 | 6.4 | 0.00 | 0.00 | 0.00 | 58 | 1017.0 |
| 20260507093548 | 13 | 55 | 1.6 | 6.4 | 0.00 | 0.00 | 0.00 | 58 | 1017.0 |
| 20260507093047 | 13 | 317 | 3.2 | 11.3 | 0.00 | 0.00 | 0.00 | 58 | 1016.9 |
| 20260507092546 | 14 | 292 | 3.2 | 8.0 | 0.00 | 0.00 | 0.00 | 59 | 1017.0 |
| 20260507092043 | 13 | 114 | 3.2 | 11.3 | 0.00 | 0.00 | 0.00 | 59 | 1017.0 |
| 20260507091542 | 13 | 277 | 3.2 | 11.3 | 0.00 | 0.00 | 0.00 | 60 | 1016.9 |
| 20260507091042 | 13 | 285 | 3.2 | 8.0 | 0.00 | 0.00 | 0.00 | 60 | 1016.9 |
| 20260507090641 | 13 | 287 | 3.2 | 9.7 | 0.00 | 0.00 | 0.00 | 59 | 1016.9 |
| 20260507090044 | 13 | 67 | 4.8 | 9.7 | 0.00 | 0.00 | 0.00 | 61 | 1016.9 |
| 20260507085539 | 13 | 294 | 1.6 | 9.7 | 0.00 | 0.00 | 0.00 | 60 | 1016.9 |
| 20260507085038 | 13 | 77 | 3.2 | 12.9 | 0.00 | 0.00 | 0.00 | 60 | 1016.9 |
| 20260507084545 | 13 | 274 | 3.2 | 12.9 | 0.00 | 0.00 | 0.00 | 61 | 1016.9 |
| 20260507084036 | 13 | 63 | 1.6 | 9.7 | 0.00 | 0.00 | 0.00 | 61 | 1016.9 |
| 20260507083535 | 13 | 74 | 3.2 | 9.7 | 0.00 | 0.00 | 0.00 | 62 | 1016.9 |
| 20260507083046 | 12 | 72 | 4.8 | 9.7 | 0.00 | 0.00 | 0.00 | 62 | 1016.9 |
| 20260507082533 | 12 | 284 | 3.2 | 8.0 | 0.00 | 0.00 | 0.00 | 61 | 1016.9 |
| 20260507082030 | 13 | 288 | 1.6 | 6.4 | 0.00 | 0.00 | 0.00 | 60 | 1016.9 |
| 20260507081529 | 13 | 65 | 1.6 | 6.4 | 0.00 | 0.00 | 0.00 | 61 | 1016.8 |
| 20260507081029 | 12 | 313 | 1.6 | 8.0 | 0.00 | 0.00 | 0.00 | 61 | 1016.8 |
| 20260507080530 | 12 | 63 | 1.6 | 8.0 | 0.00 | 0.00 | 0.00 | 61 | 1016.8 |
| 20260507080025 | 12 | 81 | 1.6 | 8.0 | 0.00 | 0.00 | 0.00 | 62 | 1016.8 |
| 20260507075528 | 12 | 76 | 1.6 | 8.0 | 0.00 | 0.00 | 0.00 | 63 | 1016.7 |
| 20260507075025 | 12 | 53 | 1.6 | 8.0 | 0.00 | 0.00 | 0.00 | 64 | 1016.8 |
| 20260507074522 | 12 | 10 | 3.2 | 8.0 | 0.00 | 0.00 | 0.00 | 64 | 1016.7 |
| 20260507074021 | 11 | 5 | 3.2 | 9.7 | 0.00 | 0.00 | 0.00 | 66 | 1016.7 |